| time (UTC) | temp C | wind direction | speed KPH | gust KPH | rain 1hr cm | rain 24hr cm | rain mn cm | humidity % | barometer mb |
| 20260504081531 | 8 | 22 | 22.5 | 40.2 | 0.00 | 0.00 | 0.00 | 55 | 1013.5 |
| 20260504044535 | 14 | 21 | 35.4 | 51.5 | 0.00 | 0.00 | 0.00 | 39 | 1007.9 |
| 20260504043041 | 14 | 46 | 29.0 | 37.0 | 0.00 | 0.00 | 0.00 | 39 | 1007.5 |
| 20260504041530 | 14 | 42 | 27.4 | 33.8 | 0.00 | 0.00 | 0.00 | 38 | 1007.1 |
| 20260504040030 | 14 | 43 | 22.5 | 33.8 | 0.00 | 0.00 | 0.00 | 39 | 1006.9 |
| 20260504034528 | 14 | 38 | 20.9 | 27.4 | 0.00 | 0.08 | 0.00 | 39 | 1006.6 |
| 20260504033029 | 15 | 40 | 22.5 | 38.6 | 0.00 | 0.08 | 0.00 | 38 | 1006.3 |
| 20260504031532 | 15 | 33 | 29.0 | 43.5 | 0.00 | 0.08 | 0.00 | 38 | 1005.9 |
| 20260504030029 | 16 | 52 | 27.4 | 37.0 | 0.00 | 0.08 | 0.00 | 36 | 1005.5 |
| 20260504024533 | 16 | 49 | 20.9 | 27.4 | 0.00 | 0.08 | 0.00 | 30 | 1005.4 |
| 20260504023031 | 17 | 35 | 16.1 | 20.9 | 0.00 | 0.08 | 0.00 | 27 | 1005.2 |
| 20260504021535 | 18 | 32 | 14.5 | 22.5 | 0.00 | 0.08 | 0.00 | 25 | 1005.3 |
| 20260504020040 | 19 | 25 | 17.7 | 24.1 | 0.00 | 0.08 | 0.00 | 24 | 1005.2 |
| 20260504014537 | 20 | 21 | 19.3 | 29.0 | 0.00 | 0.08 | 0.00 | 23 | 1005.4 |
| 20260504013031 | 21 | 342 | 20.9 | 27.4 | 0.00 | 0.08 | 0.00 | 22 | 1005.4 |
| 20260504011532 | 22 | 12 | 17.7 | 24.1 | 0.00 | 0.08 | 0.00 | 22 | 1005.5 |
| 20260504010032 | 22 | 348 | 19.3 | 33.8 | 0.00 | 0.08 | 0.00 | 22 | 1005.7 |
| 20260504004530 | 22 | 344 | 20.9 | 33.8 | 0.00 | 0.08 | 0.00 | 21 | 1005.7 |
| 20260504003029 | 23 | 360 | 25.7 | 35.4 | 0.00 | 0.08 | 0.00 | 21 | 1005.7 |
| 20260504001535 | 23 | 321 | 25.7 | 38.6 | 0.00 | 0.08 | 0.00 | 21 | 1005.9 |
| 20260504000031 | 23 | 329 | 27.4 | 37.0 | 0.00 | 0.08 | 0.00 | 20 | 1005.9 |
| 20260503234531 | 23 | 334 | 16.1 | 30.6 | 0.00 | 0.08 | 0.00 | 20 | 1005.9 |
| 20260503233027 | 23 | 331 | 27.4 | 35.4 | 0.00 | 0.08 | 0.00 | 20 | 1005.9 |
| 20260503231529 | 23 | 320 | 22.5 | 32.2 | 0.00 | 0.08 | 0.00 | 20 | 1006.0 |
| 20260503230030 | 23 | 336 | 22.5 | 35.4 | 0.00 | 0.08 | 0.00 | 20 | 1006.2 |
| 20260503224530 | 23 | 325 | 19.3 | 29.0 | 0.00 | 0.08 | 0.00 | 20 | 1006.4 |
| 20260503223030 | 23 | 341 | 24.1 | 35.4 | 0.00 | 0.08 | 0.00 | 20 | 1006.7 |
| 20260503221532 | 23 | 310 | 17.7 | 37.0 | 0.00 | 0.08 | 0.00 | 21 | 1006.8 |
| 20260503220030 | 23 | 311 | 17.7 | 38.6 | 0.00 | 0.08 | 0.00 | 20 | 1006.8 |
| 20260503214539 | 23 | 321 | 22.5 | 35.4 | 0.00 | 0.08 | 0.00 | 22 | 1007.1 |
| 20260503213032 | 23 | 321 | 27.4 | 37.0 | 0.00 | 0.08 | 0.00 | 21 | 1007.2 |
| 20260503211529 | 22 | 282 | 12.9 | 32.2 | 0.00 | 0.08 | 0.00 | 21 | 1007.5 |
| 20260503210032 | 22 | 331 | 22.5 | 35.4 | 0.00 | 0.08 | 0.00 | 21 | 1007.9 |
| 20260503204533 | 22 | 299 | 14.5 | 27.4 | 0.00 | 0.08 | 0.00 | 21 | 1008.0 |
| 20260503203031 | 22 | 292 | 16.1 | 38.6 | 0.00 | 0.08 | 0.00 | 21 | 1008.1 |
| 20260503201530 | 22 | 300 | 22.5 | 35.4 | 0.00 | 0.08 | 0.00 | 23 | 1008.4 |
| 20260503200046 | 22 | 323 | 16.1 | 33.8 | 0.00 | 0.08 | 0.00 | 23 | 1008.8 |
| 20260503194532 | 22 | 293 | 20.9 | 35.4 | 0.00 | 0.08 | 0.00 | 24 | 1008.8 |
| 20260503193036 | 21 | 300 | 24.1 | 41.8 | 0.00 | 0.08 | 0.00 | 24 | 1009.1 |
| 20260503191528 | 21 | 313 | 22.5 | 37.0 | 0.00 | 0.08 | 0.00 | 24 | 1009.3 |
| 20260503190030 | 21 | 317 | 20.9 | 33.8 | 0.00 | 0.08 | 0.00 | 23 | 1009.4 |
| 20260503184540 | 21 | 311 | 17.7 | 35.4 | 0.00 | 0.08 | 0.00 | 25 | 1009.6 |
| 20260503183030 | 21 | 254 | 19.3 | 30.6 | 0.00 | 0.08 | 0.00 | 23 | 1009.7 |
| 20260503181531 | 21 | 286 | 22.5 | 38.6 | 0.00 | 0.08 | 0.00 | 24 | 1009.9 |
| 20260503180044 | 21 | 283 | 17.7 | 30.6 | 0.00 | 0.08 | 0.00 | 24 | 1010.0 |
| 20260503174543 | 21 | 283 | 17.7 | 32.2 | 0.00 | 0.08 | 0.00 | 27 | 1010.1 |
| 20260503173039 | 20 | 311 | 17.7 | 32.2 | 0.00 | 0.08 | 0.00 | 28 | 1010.4 |
| 20260503171529 | 20 | 301 | 8.0 | 22.5 | 0.00 | 0.08 | 0.00 | 30 | 1010.4 |